GFSNE_sfc_30mbdewp_018.txt.gz
Dewpoint
36 36 35 34 33 32 31 30 28 22 20 22 24 28 29 30 30 32 33 33 35 36 34 33 35 39 41 45 45 47 49 48 48 52 52 58 58 58
35 33 31 30 30 30 30 30 30 27 24 23 24 26 27 27 30 31 30 31 30 30 34 36 37 38 40 45 45 47 47 44 45 47 48 52 57 58
28 26 25 26 26 27 29 29 28 28 25 24 24 25 26 27 26 28 29 30 34 36 35 35 35 36 38 40 41 45 45 44 43 45 46 50 53 58
24 24 23 24 25 26 27 27 27 27 26 24 24 25 24 26 26 27 30 32 30 30 31 31 31 32 33 36 38 40 44 41 40 39 42 44 45 49
24 24 25 25 24 24 24 24 24 24 24 24 22 23 25 27 26 27 28 28 29 29 30 31 32 32 33 34 37 40 41 41 39 38 38 40 43 46
24 23 23 22 22 21 22 22 22 22 22 22 22 22 22 23 24 24 24 26 27 28 28 29 30 32 34 35 37 39 40 41 39 38 39 40 40 41
24 24 22 23 22 22 23 23 24 24 23 23 23 23 22 24 23 23 23 23 25 28 28 30 32 32 32 35 38 39 40 41 41 40 38 37 40 40
24 23 23 23 24 24 24 25 26 25 24 24 23 22 22 22 23 23 23 22 21 25 25 27 31 31 34 35 37 39 40 41 40 39 39 38 39 41
25 24 23 23 24 23 23 22 23 25 25 26 24 24 24 24 23 23 23 23 22 23 25 26 30 30 31 33 33 35 37 39 39 39 39 38 38 37
23 23 24 24 23 23 23 25 26 25 24 24 23 24 24 25 25 25 24 24 25 25 26 24 25 24 27 29 31 33 35 37 38 38 37 37 36 36
23 24 25 24 23 23 24 25 24 24 25 26 27 28 28 27 27 27 25 24 22 23 25 24 24 24 25 26 29 30 31 33 36 36 36 36 35 35
22 22 23 24 25 26 26 26 24 26 27 27 27 27 28 30 30 29 28 24 23 23 23 23 23 24 23 25 27 28 28 30 35 35 35 34 34 34
24 23 24 27 25 22 22 23 23 23 24 27 27 27 27 27 28 29 30 28 25 24 23 24 22 23 24 23 24 26 27 29 30 31 31 32 33 33
23 25 27 27 21 22 23 24 26 26 25 25 25 25 26 26 26 27 28 30 30 28 27 26 24 23 24 23 24 24 25 26 27 28 28 30 30 32
26 26 24 22 21 21 22 23 24 24 24 24 23 24 26 27 29 29 29 30 30 30 31 31 29 27 26 25 24 26 28 26 26 26 26 26 26 28
25 24 21 19 18 20 21 21 22 22 22 24 24 25 27 27 27 28 27 27 26 27 30 31 31 29 27 26 26 26 24 26 26 25 24 24 24 25
23 21 17 15 15 16 18 18 19 19 20 22 24 24 24 25 26 27 27 27 25 25 26 28 31 31 30 29 26 26 25 24 25 25 24 23 23 24
19 16 15 14 13 14 15 16 17 18 18 21 23 25 24 24 24 24 25 25 25 25 25 27 28 28 26 26 29 27 25 25 24 24 24 23 22 23
15 14 13 13 12 13 14 15 16 18 19 18 19 20 23 24 25 25 25 26 25 26 27 27 27 26 22 20 22 26 25 24 23 23 22 22 21 22
13 13 12 12 12 12 12 12 13 17 16 16 16 17 19 23 22 22 23 22 23 23 23 24 25 25 24 22 20 21 27 24 22 20 21 22 23 25
11 11 11 11 11 11 11 11 11 15 16 14 15 15 17 20 20 21 21 22 23 21 20 19 20 23 22 22 18 16 18 26 23 21 21 19 18 19
10 10 10 10 10 10 11 11 11 12 15 14 13 14 14 16 16 17 17 17 18 18 19 20 21 22 19 17 14 14 15 17 21 21 23 23 18 16
8 8 8 9 9 9 9 9 10 11 12 14 13 13 13 14 15 15 15 16 17 17 17 17 15 15 16 15 14 14 14 15 15 16 16 23 23 23

GFSNE_sfc_30mbdewp_021.txt.gz
Dewpoint
36 36 35 35 36 35 34 32 29 23 20 19 17 20 23 23 25 27 25 27 34 33 31 31 32 37 38 39 40 46 47 45 45 47 49 51 54 55
35 35 35 34 33 32 30 28 25 21 16 15 16 18 22 22 22 25 25 30 28 31 30 31 37 37 36 36 37 39 41 48 46 45 46 46 50 53
30 29 27 27 25 24 23 22 21 21 20 18 20 21 23 23 23 23 25 25 25 29 33 36 34 33 32 32 32 34 38 39 46 43 46 45 46 50
23 22 21 20 21 23 23 23 23 22 21 20 19 20 21 23 23 23 23 22 22 25 33 32 31 30 31 32 31 32 34 37 40 43 40 43 43 43
22 22 23 24 22 21 20 20 19 19 19 19 18 18 19 20 20 22 23 23 23 24 27 29 30 31 31 32 34 33 35 35 38 41 39 38 39 40
22 22 21 21 20 19 18 18 18 19 19 19 18 19 19 20 21 21 21 23 24 24 25 26 27 28 31 31 33 35 36 38 37 39 41 36 38 39
21 21 21 21 22 22 21 20 20 20 21 22 21 19 19 20 21 21 21 21 22 24 24 26 26 27 28 30 31 32 34 38 39 39 41 34 36 37
20 20 20 21 21 22 24 24 24 23 23 23 21 20 19 19 20 21 23 22 21 24 24 25 26 26 27 28 29 34 36 38 38 39 41 39 36 37
20 20 20 20 22 22 23 23 25 25 25 23 22 21 20 20 21 22 23 23 21 21 24 24 25 25 28 30 31 33 33 35 37 39 40 39 38 39
21 21 21 22 23 23 23 24 23 24 25 25 25 23 23 22 22 22 23 24 24 23 24 24 25 26 27 27 28 28 31 33 35 38 39 39 38 37
22 22 21 22 23 26 26 26 24 23 23 25 26 27 27 26 26 27 26 25 23 21 24 26 24 24 25 27 30 29 31 33 32 34 37 38 37 36
21 21 23 24 26 27 27 25 22 21 20 21 21 23 27 27 28 30 28 25 22 20 20 22 21 21 21 26 29 31 31 31 31 32 36 36 35 36
21 21 24 27 28 28 22 22 23 24 24 24 23 23 26 27 26 28 28 28 25 24 20 25 20 21 24 21 24 29 31 32 33 34 34 34 33 34
22 24 27 24 21 21 22 23 23 24 25 25 25 25 25 25 26 27 28 28 28 26 24 29 24 21 24 22 20 26 30 31 33 32 32 32 31 32
25 25 24 21 19 20 21 22 22 22 23 23 24 24 24 26 28 29 31 30 31 31 30 31 28 25 27 25 22 24 26 30 31 31 33 32 32 33
24 24 22 18 17 17 18 20 21 22 21 22 24 25 27 26 26 27 27 27 27 27 31 31 31 30 28 27 24 24 29 28 30 31 31 32 31 30
22 20 18 16 15 16 16 17 19 20 20 21 23 24 25 25 25 25 26 26 25 23 25 29 31 31 31 30 27 25 24 27 26 28 29 28 30 30
18 16 15 15 15 15 15 15 17 18 19 20 21 23 24 25 25 26 26 24 23 23 24 27 28 28 28 30 31 26 25 25 26 28 28 28 28 29
15 14 14 14 14 14 14 15 15 17 18 18 19 21 23 24 24 25 26 26 25 24 26 28 28 27 24 21 26 27 27 27 27 27 27 27 27 26
13 13 13 13 13 13 13 14 15 17 17 17 18 19 20 22 22 23 24 25 25 24 24 24 26 26 26 24 24 24 26 28 27 27 25 25 25 24
11 11 12 12 12 13 13 14 15 16 16 17 17 18 19 20 20 20 21 22 23 23 22 22 23 24 26 26 22 20 22 26 27 27 24 23 22 21
10 10 11 11 11 12 13 13 14 15 15 16 17 18 18 19 19 20 20 21 21 21 20 21 22 23 23 21 19 18 19 21 23 23 24 24 22 20
7 8 9 10 10 11 12 12 12 13 14 14 16 17 17 17 19 19 20 20 20 20 20 20 19 18 18 19 18 18 18 19 20 20 21 23 23 24

GFSNE_sfc_30mbdewp_024.txt.gz
Dewpoint
36 36 35 35 36 36 36 35 33 28 26 23 23 24 23 24 25 26 26 27 32 33 35 34 32 29 29 34 38 38 39 42 45 47 45 47 48 48
35 35 34 33 33 31 32 30 28 25 20 17 15 15 17 17 20 22 23 26 27 33 32 32 31 29 34 37 34 34 34 35 39 44 47 45 45 45
29 27 25 23 22 21 20 21 20 19 17 16 16 17 19 21 22 23 24 24 24 29 29 30 31 35 37 34 32 32 31 31 33 38 42 45 43 44
23 22 20 18 19 20 19 20 19 19 18 17 16 17 18 20 21 22 22 21 21 21 28 29 32 36 34 33 32 32 32 31 33 35 38 43 43 41
21 20 20 20 21 20 20 19 18 16 16 16 15 16 17 17 18 19 20 21 21 23 25 28 30 31 30 30 31 32 32 33 34 34 34 36 40 41
21 21 21 21 21 20 19 17 17 17 16 16 16 15 16 17 18 18 19 20 21 21 22 23 24 26 30 32 33 34 35 34 34 35 36 35 37 40
18 19 19 20 21 22 21 19 18 17 17 17 20 20 19 18 18 19 20 20 22 23 24 25 25 25 26 29 28 28 31 32 34 35 37 38 38 39
19 18 18 19 19 22 23 24 24 22 21 22 21 21 20 21 21 21 22 23 22 24 24 26 27 27 25 25 26 28 32 35 36 37 38 37 38 40
20 19 17 16 20 21 23 24 24 24 25 23 22 22 20 21 21 22 23 24 23 22 24 26 29 26 28 26 28 30 33 33 34 34 36 36 38 39
19 18 18 21 21 23 24 23 24 24 25 26 26 24 22 24 24 24 24 24 25 25 25 25 27 27 27 29 29 30 31 31 31 32 35 37 38 39
20 21 22 23 23 26 26 25 23 23 21 23 25 26 26 26 26 27 27 25 24 22 24 25 26 26 25 28 30 29 30 30 31 33 33 36 38 39
21 22 23 23 26 27 27 27 24 20 21 24 23 25 25 26 28 28 28 25 25 23 21 24 25 24 24 27 28 30 31 31 31 32 32 33 37 38
20 21 22 28 25 23 22 22 22 24 23 24 25 27 28 26 26 27 28 29 26 25 22 24 26 22 23 22 27 30 30 31 32 32 32 33 34 36
21 23 26 25 22 21 21 23 22 23 25 26 26 27 26 26 27 29 29 29 30 27 24 30 27 21 22 23 23 24 28 30 33 33 35 35 33 33
24 24 25 23 21 21 22 20 23 25 23 23 24 24 26 26 27 27 29 30 29 29 30 30 31 23 27 24 23 25 28 29 32 33 33 34 34 34
23 24 23 23 24 23 22 22 24 23 23 23 23 25 27 28 27 28 27 28 28 26 31 31 32 29 27 27 25 25 31 29 32 33 33 33 35 34
21 22 21 20 20 20 19 19 20 21 22 23 24 25 26 27 27 26 25 26 26 25 24 29 32 31 31 29 28 27 26 27 29 32 32 31 32 33
20 18 18 18 18 18 17 18 20 20 20 21 23 24 24 26 26 29 28 25 25 25 24 27 29 29 28 30 31 25 30 29 30 30 29 28 28 33
16 16 16 16 16 17 17 17 18 19 20 20 20 21 22 23 24 26 26 28 27 26 26 29 29 27 25 24 28 27 28 29 32 30 29 28 27 31
15 15 14 15 15 15 16 16 17 18 18 18 19 20 21 21 22 22 23 24 26 26 26 26 27 29 27 27 28 26 25 27 30 29 27 29 28 24
13 13 14 14 14 14 15 16 17 18 18 18 19 19 20 21 20 20 22 24 23 25 23 22 23 25 28 29 26 24 24 26 27 29 29 27 26 28
12 11 11 12 13 13 14 15 14 16 16 17 18 19 20 22 20 20 21 22 23 23 22 22 22 22 24 23 24 22 22 24 25 25 25 24 25 26
8 8 9 10 11 12 12 13 13 14 15 16 17 18 20 20 20 20 21 22 22 22 21 21 20 20 20 21 22 22 21 23 25 24 23 24 24 25

GFSNE_sfc_30mbdewp_027.txt.gz
Dewpoint
38 39 38 37 37 37 37 35 33 29 27 27 30 35 40 38 31 29 29 30 32 31 34 34 34 35 33 32 31 32 36 38 38 42 44 47 46 46
38 38 36 35 34 34 33 32 33 32 28 25 23 24 24 22 21 22 23 26 26 32 33 33 34 34 32 30 29 33 36 35 35 36 39 42 47 46
30 30 28 27 24 22 23 27 28 27 24 22 20 21 22 23 22 24 24 25 27 27 27 31 32 32 32 32 33 38 35 33 32 32 33 36 39 45
25 23 20 17 18 19 19 18 19 19 19 19 18 19 20 22 23 24 22 20 23 22 30 31 32 31 33 32 36 35 33 32 31 31 30 31 35 37
19 19 18 19 19 19 20 19 18 17 17 17 17 17 18 19 20 21 22 23 21 22 24 29 31 31 32 35 35 34 33 31 31 32 32 33 34 34
19 19 19 20 20 19 19 19 18 17 17 17 18 18 17 18 19 20 20 22 22 19 20 20 23 28 30 30 31 32 32 32 33 34 35 33 33 34
17 18 18 20 22 21 18 18 18 18 18 18 18 18 17 17 18 20 21 22 24 24 25 26 26 27 28 30 28 29 30 31 34 35 32 32 33 34
18 18 18 19 19 23 24 25 24 20 20 21 21 20 20 22 23 23 23 24 26 28 27 27 27 28 27 27 27 29 30 33 33 33 34 35 37 38
20 20 19 17 18 19 23 24 25 27 26 23 22 21 21 21 21 23 24 25 24 25 26 27 29 29 31 26 28 28 30 31 33 35 35 34 35 35
20 20 18 18 20 22 23 23 23 24 25 26 25 23 24 25 27 25 26 25 27 28 26 25 28 28 29 31 30 29 29 29 32 33 33 32 32 35
19 22 22 23 23 24 28 27 23 24 23 27 28 27 26 26 27 26 25 25 26 26 27 25 26 27 28 29 31 29 30 31 31 31 31 31 32 35
20 19 21 22 25 27 27 25 23 23 25 23 24 24 24 26 29 28 26 24 23 22 25 24 28 25 26 29 30 30 31 31 31 32 32 32 33 34
21 22 22 28 26 24 24 23 23 26 22 22 24 25 27 29 30 29 30 28 26 24 24 24 29 27 24 25 26 31 32 34 34 34 32 32 32 33
21 22 27 23 24 24 24 24 25 23 24 26 27 26 29 32 30 31 33 32 31 29 30 32 30 26 24 26 23 26 27 30 32 34 34 34 32 33
23 24 22 26 24 25 26 24 24 25 27 25 24 24 25 27 29 28 28 28 33 31 30 30 32 30 29 29 23 24 27 29 34 32 34 34 33 33
21 22 26 25 25 26 26 26 26 27 25 25 25 26 28 29 30 27 26 29 29 27 30 30 30 29 28 27 25 25 27 27 33 32 33 33 34 35
21 24 22 21 20 22 23 23 24 23 24 24 25 26 25 25 30 31 28 26 25 25 25 30 32 31 29 27 26 27 28 28 28 32 32 32 33 34
20 19 19 19 18 19 20 20 21 21 21 22 23 24 24 24 25 27 29 29 26 25 24 25 31 29 29 29 30 27 27 30 31 30 33 28 28 33
18 18 17 17 17 18 19 19 18 20 21 20 22 22 23 23 25 24 25 26 27 30 28 28 31 30 26 25 28 29 28 29 30 30 32 27 27 29
16 16 16 17 17 14 14 16 18 20 21 21 22 22 23 23 24 23 24 24 23 24 27 29 27 25 24 25 26 25 27 27 28 28 31 29 29 28
14 15 16 15 13 14 15 16 18 19 19 20 21 21 22 23 21 22 24 23 23 23 23 22 23 24 26 30 27 25 25 26 27 27 30 30 28 28
11 10 10 11 12 13 14 15 16 16 17 17 19 21 21 22 21 22 23 23 22 22 24 25 23 23 25 24 23 23 24 25 27 26 26 25 25 24
9 10 10 10 11 11 11 13 13 14 14 15 16 18 21 21 21 22 21 22 21 21 21 22 23 22 21 22 24 22 22 24 27 23 23 26 27 27

GFSNE_sfc_30mbdewp_030.txt.gz
Dewpoint
38 38 39 38 38 38 37 36 33 29 28 28 31 34 40 41 41 42 36 36 33 31 32 35 35 35 35 35 34 33 32 32 36 39 40 43 45 48
37 36 36 35 35 36 37 37 35 32 28 27 27 27 26 26 33 35 32 32 35 34 32 33 35 35 35 35 34 32 30 28 33 36 36 37 40 42
32 30 30 30 29 28 27 30 31 32 32 31 29 26 24 23 23 25 27 27 28 31 30 30 31 32 34 35 34 33 32 31 33 34 34 34 34 37
25 24 23 22 23 23 24 24 24 24 22 20 22 22 22 23 24 24 24 23 24 25 31 31 32 33 33 33 33 33 32 35 36 34 32 31 30 31
22 22 22 22 22 23 23 23 23 22 22 21 20 20 20 21 20 22 23 23 24 23 23 27 30 33 34 33 33 33 33 34 34 33 32 31 30 28
22 22 22 21 21 22 22 22 20 19 19 20 20 20 21 21 21 21 22 24 24 23 22 23 29 31 33 34 34 34 35 34 34 33 32 33 33 32
20 21 21 22 24 23 19 20 20 20 21 21 20 21 22 22 22 24 24 24 26 28 28 27 26 27 29 32 32 33 33 34 34 33 33 33 35 35
20 20 22 24 21 23 23 26 27 25 22 21 20 20 20 21 22 23 24 25 24 27 27 28 29 28 28 28 28 30 29 29 30 33 34 34 35 33
22 22 22 21 23 22 23 23 25 26 27 25 25 23 22 22 22 22 22 23 24 25 26 26 28 28 30 30 30 30 30 30 30 31 32 34 35 35
21 20 20 23 23 24 24 25 27 26 25 26 29 27 25 25 27 29 31 30 30 30 27 25 27 28 29 30 31 32 32 30 30 32 32 33 33 32
20 21 22 21 22 23 26 25 25 25 25 25 31 30 30 30 29 27 25 24 22 22 25 29 27 26 27 29 30 31 32 31 31 30 31 33 34 33
21 21 21 22 26 27 26 25 23 23 23 25 26 24 24 24 25 27 28 26 24 22 23 23 23 26 25 28 29 30 31 31 31 32 32 31 32 32
21 20 21 24 26 23 24 24 23 24 25 25 24 24 25 26 27 28 29 30 27 25 24 24 26 27 27 26 26 30 31 32 32 32 33 32 32 33
21 21 25 21 24 25 25 25 26 26 24 23 24 26 27 29 30 31 33 33 33 30 29 31 30 28 27 27 25 27 27 29 31 31 33 34 34 33
20 22 21 24 26 26 26 27 27 25 25 25 25 27 27 27 30 31 31 30 30 32 33 32 31 29 29 27 28 28 25 27 30 32 32 33 33 33
20 20 22 24 22 24 25 26 26 27 25 25 25 27 29 28 27 32 29 27 26 29 30 31 30 30 28 28 27 25 25 25 30 33 33 33 33 34
20 22 21 20 19 20 21 21 24 24 23 24 24 25 25 25 25 26 29 30 27 26 26 29 30 30 30 29 27 26 26 27 28 30 32 30 30 32
20 19 18 18 17 18 20 19 21 22 22 23 23 23 24 23 24 25 26 26 26 28 28 27 31 29 28 28 30 27 26 27 30 31 32 30 30 33
18 18 17 17 18 18 18 18 19 21 22 21 23 23 23 23 25 25 24 25 24 24 25 31 29 27 25 24 29 29 27 28 30 30 31 31 28 28
17 17 16 17 17 15 15 16 17 20 19 20 21 22 22 23 24 23 24 24 25 25 25 24 23 23 23 23 25 25 28 27 27 27 28 31 28 30
14 16 17 16 15 15 16 16 17 18 17 17 18 19 22 24 22 24 23 24 24 24 24 24 24 24 24 26 26 24 24 26 26 25 26 28 27 26
12 12 13 13 14 14 14 15 15 15 15 15 15 17 19 22 21 23 23 23 23 23 23 24 24 24 24 24 24 24 24 26 27 26 27 26 23 22
11 12 14 13 13 13 13 13 13 13 12 13 14 15 17 18 20 22 21 21 22 18 18 20 23 23 23 23 25 21 22 23 26 22 23 26 27 27

GFSNE_sfc_30mbdewp_033.txt.gz
Dewpoint
37 37 37 36 37 37 37 36 32 28 27 28 27 31 31 38 38 39 40 42 41 40 38 36 35 34 34 34 33 35 34 33 33 33 37 40 40 43
36 36 35 35 35 34 33 34 35 33 29 29 30 30 30 28 34 36 37 36 37 39 39 37 36 35 33 34 35 34 33 32 30 29 32 36 37 38
32 29 27 27 26 27 28 27 28 30 30 29 32 32 30 28 27 29 33 32 32 33 37 33 31 32 32 33 34 35 35 33 31 30 30 34 34 34
22 22 22 22 23 24 24 24 24 25 24 22 23 22 21 22 23 22 23 24 27 27 32 32 31 33 33 33 33 33 33 33 33 33 33 33 33 32
22 21 21 21 21 22 22 23 24 22 21 20 20 22 22 22 22 22 21 22 22 24 23 26 31 30 31 33 33 33 32 32 32 34 35 35 33 31
23 22 22 21 22 23 24 23 21 20 19 19 21 22 22 23 24 24 23 25 25 25 27 27 27 28 33 36 36 35 35 35 34 33 33 33 33 33
23 22 21 22 24 26 24 26 24 22 21 21 21 21 20 20 19 22 22 23 24 26 25 26 26 27 27 27 32 34 34 34 34 35 35 35 34 33
20 22 23 22 22 23 25 24 24 25 25 24 24 22 21 21 22 22 22 22 21 26 27 26 28 28 29 29 29 30 32 33 34 34 34 34 34 35
20 21 19 18 22 24 24 25 25 25 26 24 23 23 23 23 23 22 22 22 22 24 25 25 26 26 27 29 30 31 31 32 32 31 31 30 31 32
22 21 20 21 23 23 22 24 25 27 27 27 26 26 26 26 26 26 26 29 29 29 29 23 24 26 27 28 30 31 32 32 32 32 31 31 30 30
24 22 21 21 22 22 26 24 24 24 26 26 26 26 28 30 32 31 27 25 22 22 24 24 24 26 26 27 28 30 31 32 33 33 32 33 33 32
22 21 21 20 23 27 24 25 22 22 22 23 25 25 24 24 25 26 25 24 23 23 24 24 24 24 24 26 28 28 29 31 32 33 33 33 32 33
20 19 20 21 21 24 26 25 23 24 25 25 24 23 24 26 27 28 30 28 26 26 26 27 26 24 25 25 25 26 27 29 30 31 32 33 33 33
19 19 22 23 25 25 25 26 27 27 25 24 23 23 24 27 29 29 30 32 32 31 30 30 28 26 26 25 24 25 26 28 30 30 30 31 33 34
19 21 23 24 21 23 24 25 26 26 25 24 24 25 26 28 30 30 32 32 30 31 32 32 30 30 29 26 25 26 26 26 28 29 29 31 32 31
21 21 23 20 21 22 23 22 24 24 23 22 23 25 27 26 25 26 27 28 28 26 28 31 31 31 28 27 26 26 26 25 28 30 32 32 31 32
21 20 18 18 18 18 19 20 21 21 21 22 22 23 23 24 23 25 25 25 25 26 27 28 29 29 30 28 26 27 26 26 27 27 30 29 29 30
18 17 16 16 16 17 17 17 19 20 21 21 22 22 22 22 23 24 24 23 23 24 25 28 29 28 29 29 31 28 27 27 27 29 31 28 29 30
16 16 15 16 16 16 15 16 16 19 20 19 20 20 21 21 23 23 23 23 23 24 26 25 22 22 21 21 26 27 25 27 29 28 29 29 28 30
14 15 15 16 15 14 15 15 16 17 16 16 17 18 18 21 21 22 22 22 23 24 24 24 23 22 21 21 23 24 27 24 24 25 25 28 28 30
11 13 15 15 14 14 14 14 15 14 14 14 14 15 16 19 19 21 21 21 22 21 20 19 23 25 24 24 24 22 23 26 25 24 24 24 26 26
10 11 13 14 13 13 14 14 12 11 11 11 12 13 15 17 17 19 20 19 20 19 18 20 23 24 22 23 22 21 23 24 26 26 27 26 23 22
10 10 11 12 12 12 13 12 12 9 8 9 10 11 12 15 15 17 18 18 17 18 18 19 21 23 24 22 24 20 21 22 23 21 21 26 27 27